This demonstration page uses our WeatherBlox Daily Observations layout. Learn more.

36.17497, -115.13722

Hourly Observations for June 4, 2015

Temp ( °F °C ) Dew Point ( °F °C ) Humidity (%) Winds ( mph kmh ) Pressure ( in mb ) Visibility ( mi km ) Precip ( " mm )
12:53 am 00:53 Clear 78 25.6 33 0.6 19 19 S 9 15 29.67 1005 10 16.0934 0 0
1:53 am 01:53 Clear 77 25 33 0.6 20 20 S 12 19 29.67 1005 10 16.0934 0 0
2:53 am 02:53 Clear 76 24.4 33 0.6 21 21 S 8 13 29.66 1004 10 16.0934 0 0
3:53 am 03:53 Clear 73 22.8 35 1.7 25 25 SE 7 11 29.67 1005 10 16.0934 0 0
4:53 am 04:53 Clear 72 22.2 35 1.7 26 26 SSE 13 20 29.67 1005 10 16.0934 0 0
5:53 am 05:53 Sunny 72 22.2 34 1.1 25 25 SSE 7 11 29.69 1006 10 16.0934 0 0
6:53 am 06:53 Sunny 73 22.8 33 0.6 23 23 SSE 3 6 29.71 1006 10 16.0934 0 0
7:53 am 07:53 Sunny 75 23.9 31 -0.6 20 20 S 6 9 29.72 1007 10 16.0934 0 0
8:53 am 08:53 Sunny 78 25.6 28 -2.2 16 16 SSE 13 20 29.73 1007 10 16.0934 0 0
9:53 am 09:53 Sunny 79 26.1 24 -4.4 13 13 S 13 20 29.73 1007 10 16.0934 0 0
10:53 am 10:53 Sunny 83 28.3 25 -3.9 12 12 SE 13 20 29.73 1007 10 16.0934 0 0
11:53 am 11:53 Sunny 83 28.3 25 -3.9 12 12 SE 9 15 29.72 1006 10 16.0934 0 0
12:53 pm 12:53 Sunny 87 30.6 26 -3.3 11 11 SSE 10 17 29.7 1006 10 16.0934 0 0
1:53 pm 13:53 Sunny 89 31.7 17 -8.3 7 7 S 16 26 29.68 1005 10 16.0934 0 0
2:53 pm 14:53 Sunny 90 32.2 15 -9.4 6 6 WSW 16 26 29.67 1005 10 16.0934 0 0
3:53 pm 15:53 Sunny 89 31.7 18 -7.8 7 7 W 13 20 29.65 1004 10 16.0934 0 0
4:53 pm 16:53 Sunny 89 31.7 13 -10.6 6 6 SW 12 19 29.65 1004 10 16.0934 0 0
5:53 pm 17:53 Sunny 89 31.7 11 -11.7 5 5 WSW 15 24 29.65 1004 10 16.0934 0 0
6:53 pm 18:53 Sunny 87 30.6 9 -12.8 5 5 WSW 12 19 29.66 1004 10 16.0934 0 0
7:53 pm 19:53 Sunny 86 30 10 -12.2 6 6 SW 7 11 29.67 1005 10 16.0934 0 0
8:53 pm 20:53 Clear 84 28.9 12 -11.1 6 6 SSW 3 6 29.68 1005 10 16.0934 0 0
9:53 pm 21:53 Clear 82 27.8 13 -10.6 7 7 SSE 21 33 29.7 1006 10 16.0934 0 0
10:53 pm 22:53 Clear 82 27.8 15 -9.4 8 8 SSW 10 17 29.71 1006 10 16.0934 0 0
11:53 pm 23:53 Clear 80 26.7 16 -8.9 9 9 S 6 9 29.72 1007 10 16.0934 0 0

Powered by AerisWeather